Flag for Israel Weather past 2 weeks in Haifa, Israel

Now
64 °F

Clear.


Feels Like: 64 °F
Forecast: 67 / 79 °F
Wind: 1 mph from North

Location: Sde-Haifa Haifa

Current Time: Oct 21, 2014 at 11:02:38 PM

Latest Report: Oct 21, 2014 at 9:50 PM


Visibility: 10 mi

Pressure: 30.07 "Hg

Humidity: 64%

Dew point: 52 °F

Location of HaifaLocation

Historic Weather in Haifa — Graph

°F

Haifa temperature yesterday

Maximum temperature yesterday: 75 °F (at 11:50 AM)
Minimum temperature yesterday: 63 °F (at 7:50 AM)
Average temperature yesterday: 71 °F

Past Weeks' High & Low Weather Summary

 TemperatureHumidityPressure
High82 °F (Oct 8, 1:50 PM)94% (Oct 9, 6:50 AM)30.12 "Hg (Oct 9, 6:50 AM)
Low57 °F (Oct 21, 6:50 AM)36% (Oct 21, 2:50 PM)29.74 "Hg (Oct 19, 12:50 PM)
Average76 °F62%29.95 "Hg
* Reported Oct 7 6:50 AM — Oct 21 9:50 PM, Haifa, Weather by CustomWeather, © 2014

Note: Actual official high and low records may vary slightly from our data, if they occured in-between our weather recording intervals... More about our weather records

Advertising

Haifa weather history for previous 24 hours

 ConditionsComfort  
Time TempWeatherWind HumidityBarometerVisibility
9:50 PM
Oct 21
64 °FClear.1 mph64%30.07 "Hg10 mi
8:50 PM68 °FClear.2 mph53%30.04 "Hg10 mi
7:50 PM70 °FClear.3 mph50%30.04 "Hg10 mi
6:50 PM73 °FClear.7 mph44%30.01 "Hg10 mi
5:50 PM73 °FPassing clouds.6 mph41%29.98 "HgN/A
4:50 PM75 °FPassing clouds.8 mph41%29.98 "HgN/A
3:50 PM75 °FPassing clouds.7 mph39%30.01 "HgN/A
2:50 PM75 °FSunny.6 mph36%29.98 "Hg10 mi
1:50 PM75 °FSunny.8 mph39%29.98 "Hg10 mi
12:50 PM73 °FPassing clouds.8 mph38%30.01 "HgN/A
11:50 AM73 °FSunny.7 mph38%30.01 "Hg10 mi
10:50 AM73 °FSunny.2 mph38%30.04 "Hg10 mi
9:50 AM70 °FSunny.7 mph46%30.01 "Hg10 mi
8:50 AM64 °FSunny.7 mph56%30.01 "Hg10 mi
7:50 AM59 °FPassing clouds.6 mph68%30.01 "HgN/A
6:50 AM57 °FPassing clouds.5 mph67%29.98 "HgN/A
Weather by CustomWeather, © 2014

See weather overviewHow to use our weather pages